YAHSAT 1B

Last updated on Wed Sep 17 2025 00:02:47 GMT+0000 (Coordinated Universal Time)

1 38245U 12016A 25259.59317873 .00000107 00000+0 00000+0 0 9994 2 38245 0.0398 98.5449 0002936 86.9068 71.4732 1.00270599 42856
UTC large
Height (km)
Speed (km/s)
/
Latitude / Longitude
Inclination (degrees)
Orbital Period (minutes)
Azimuth
Elevation
Range (km)
Doppler Factor

Next 0 passes for location: London (51.5072 / 0.1276)

Sorry there are no passes over London.